SQ5DCP-1 Weather Reports


time (UTC)temp
C
wind
direction
speed
KPH
gust
KPH
rain 1hr
cm
rain 24hr
cm
rain mn
cm
humidity
%
barometer
mb
20260902101021 21 301 11.3 17.7 0.00 0.00 0.00 60 1020.4
20260902100519 21 282 11.3 24.1 0.00 0.00 0.00 60 1020.5
20260902100051 21 286 9.7 20.9 0.00 0.00 0.00 60 1020.6
20260902100017 21 286 9.7 20.9 0.00 0.00 0.00 60 1020.6
20260902095535 21 281 9.7 25.7 0.00 0.00 0.00 60 1020.5
20260902095033 21 292 12.9 24.1 0.00 0.00 0.00 60 1020.5
20260902094531 21 282 11.3 17.7 0.00 0.00 0.00 61 1020.6
20260902094029 21 279 4.8 17.7 0.00 0.00 0.00 61 1020.6
20260902093528 21 296 8.0 16.1 0.00 0.00 0.00 61 1020.6
20260902093026 21 267 9.7 17.7 0.00 0.00 0.00 61 1020.7
20260902092524 20 286 8.0 17.7 0.00 0.00 0.00 63 1020.8
20260902092022 20 262 8.0 16.1 0.00 0.00 0.00 64 1020.8
20260902091520 20 275 9.7 17.7 0.00 0.00 0.00 62 1020.8
20260902091018 20 298 9.7 17.7 0.00 0.00 0.00 63 1020.7
20260902090517 20 276 8.0 22.5 0.00 0.00 0.00 65 1020.8
20260902090035 20 288 6.4 12.9 0.00 0.00 0.00 64 1020.8
20260902085534 20 269 9.7 24.1 0.00 0.00 0.00 64 1020.8
20260902085031 20 284 9.7 24.1 0.00 0.00 0.00 65 1020.8
20260902084530 20 282 9.7 17.7 0.00 0.00 0.00 64 1020.8
20260902084028 20 281 12.9 20.9 0.00 0.00 0.00 66 1020.9
20260902083526 20 280 8.0 20.9 0.00 0.00 0.00 66 1020.7
20260902083024 19 292 9.7 17.7 0.00 0.00 0.00 66 1020.7
20260902082522 19 286 6.4 17.7 0.00 0.00 0.00 68 1020.8
20260902082021 18 263 8.0 16.1 0.00 0.00 0.00 70 1020.7
20260902081519 18 278 6.4 14.5 0.00 0.00 0.00 70 1020.8
20260902081048 18 283 6.4 12.9 0.00 0.00 0.00 72 1020.8
20260902081017 18 283 6.4 12.9 0.00 0.00 0.00 72 1020.8
20260902080535 18 279 4.8 12.9 0.00 0.00 0.00 72 1020.8
20260902080033 18 275 4.8 12.9 0.00 0.00 0.00 73 1020.7
20260902075531 17 257 6.4 11.3 0.00 0.00 0.00 73 1020.7
20260902075029 17 282 6.4 14.5 0.00 0.00 0.00 74 1020.7
20260902074527 17 292 4.8 12.9 0.00 0.00 0.00 74 1020.7
20260902074026 17 293 4.8 11.3 0.00 0.00 0.00 74 1020.8
20260902073524 17 265 1.6 4.8 0.00 0.00 0.00 74 1020.7
20260902073022 17 274 4.8 12.9 0.00 0.00 0.00 73 1020.8
20260902072520 17 280 8.0 14.5 0.00 0.00 0.00 73 1020.8
20260902072019 17 289 6.4 14.5 0.00 0.00 0.00 74 1020.6
20260902071517 16 285 4.8 11.3 0.00 0.00 0.00 74 1020.5
20260902071035 16 287 4.8 11.3 0.00 0.00 0.00 75 1020.5
20260902070533 16 272 3.2 9.7 0.00 0.00 0.00 75 1020.4
20260902070032 16 271 3.2 11.3 0.00 0.00 0.00 75 1020.3
20260902065529 16 285 4.8 11.3 0.00 0.00 0.00 75 1020.3
20260902065027 16 287 3.2 11.3 0.00 0.00 0.00 75 1020.3
20260902064526 16 283 4.8 14.5 0.00 0.00 0.00 75 1020.3
20260902064024 16 281 6.4 14.5 0.00 0.00 0.00 75 1020.4
20260902063522 16 283 6.4 16.1 0.00 0.00 0.00 76 1020.4
20260902063020 16 292 4.8 11.3 0.00 0.00 0.00 76 1020.3
20260902062519 15 280 1.6 4.8 0.00 0.00 0.00 77 1020.2
20260902062049 15 255 3.2 6.4 0.00 0.00 0.00 77 1020.3
20260902062016 15 255 3.2 6.4 0.00 0.00 0.00 77 1020.3
20260902061535 15 286 3.2 11.3 0.00 0.00 0.00 78 1020.2
20260902061033 15 273 4.8 11.3 0.00 0.00 0.00 78 1020.2
20260902060531 15 262 3.2 12.9 0.00 0.00 0.00 78 1020.1
20260902060029 14 242 3.2 9.7 0.00 0.00 0.00 78 1020.2
20260902055527 14 264 4.8 9.7 0.00 0.00 0.00 79 1020.2
20260902055026 14 249 4.8 9.7 0.00 0.00 0.00 79 1020.3
20260902054523 14 261 3.2 9.7 0.00 0.00 0.00 79 1020.2
20260902054105 13 252 3.2 6.4 0.00 0.00 0.00 79 1020.1
20260902054021 13 252 3.2 6.4 0.00 0.00 0.00 79 1020.1
20260902053520 13 240 4.8 11.3 0.00 0.00 0.00 79 1020.2
20260902053109 13 250 4.8 9.7 0.00 0.00 0.00 79 1020.2
20260902053018 13 250 4.8 9.7 0.00 0.00 0.00 79 1020.2
20260902052516 13 232 1.6 6.4 0.00 0.00 0.00 79 1020.1
20260902052034 13 240 1.6 6.4 0.00 0.00 0.00 79 1020.1
20260902051533 13 280 3.2 9.7 0.00 0.00 0.00 79 1020.2
20260902051031 13 276 3.2 9.7 0.00 0.00 0.00 80 1020.3
20260902050529 13 278 3.2 11.3 0.00 0.00 0.00 80 1020.2
20260902050027 13 260 0.0 4.8 0.00 0.00 0.00 79 1020.1
20260902045527 13 233 1.6 4.8 0.00 0.00 0.00 79 1020.0
20260902045023 13 244 0.0 3.2 0.00 0.00 0.00 79 1020.1
20260902044522 13 258 1.6 4.8 0.00 0.00 0.00 79 1019.9
20260902044019 13 252 0.0 3.2 0.00 0.00 0.00 79 1020.0
20260902043518 13 0.0 0.0 0.00 0.00 0.00 79 1019.8
20260902043047 13 249 0.0 3.2 0.00 0.00 0.00 79 1019.8
20260902043016 13 249 0.0 3.2 0.00 0.00 0.00 79 1019.8
20260902042534 13 0.0 0.0 0.00 0.00 0.00 79 1019.8
20260902042032 13 0.0 0.0 0.00 0.00 0.00 79 1019.8
20260902041531 13 0.0 0.0 0.00 0.00 0.00 78 1019.8
20260902041111 13 229 0.0 1.6 0.00 0.00 0.00 78 1019.8
20260902041028 13 229 0.0 1.6 0.00 0.00 0.00 78 1019.8
20260902040526 13 226 0.0 1.6 0.00 0.00 0.00 78 1019.8
20260902040058 13 252 0.0 3.2 0.00 0.00 0.00 78 1019.7
20260902040025 13 252 0.0 3.2 0.00 0.00 0.00 78 1019.7
20260902035522 13 263 0.0 3.2 0.00 0.00 0.00 78 1019.6
20260902035021 13 249 0.0 3.2 0.00 0.00 0.00 78 1019.6
20260902034519 13 247 1.6 6.4 0.00 0.00 0.00 78 1019.6
20260902034049 13 266 0.0 4.8 0.00 0.00 0.00 78 1019.7
20260902034017 13 266 0.0 4.8 0.00 0.00 0.00 78 1019.7
20260902033535 13 276 1.6 6.4 0.00 0.00 0.00 78 1019.7
20260902033033 13 248 0.0 3.2 0.00 0.00 0.00 78 1019.7
20260902032532 13 271 1.6 4.8 0.00 0.00 0.00 78 1019.8
20260902032029 13 0.0 0.0 0.00 0.00 0.00 77 1019.8
20260902031527 13 232 0.0 4.8 0.00 0.00 0.00 77 1019.8
20260902031104 13 256 0.0 3.2 0.00 0.00 0.00 77 1019.8
20260902031025 13 256 0.0 3.2 0.00 0.00 0.00 77 1019.8
20260902030523 13 234 0.0 4.8 0.00 0.00 0.00 77 1019.7
20260902030021 13 265 0.0 4.8 0.00 0.00 0.00 77 1019.7
20260902025519 13 0.0 0.0 0.00 0.00 0.00 77 1019.8
20260902025049 13 239 0.0 1.6 0.00 0.00 0.00 77 1019.7
20260902025018 13 239 0.0 1.6 0.00 0.00 0.00 77 1019.7
20260902024516 13 0.0 0.0 0.00 0.00 0.00 77 1019.8
20260902024034 13 0.0 0.0 0.00 0.00 0.00 77 1019.8
20260902023532 13 0.0 0.0 0.00 0.00 0.00 77 1019.8
20260902023030 13 0.0 0.0 0.00 0.00 0.00 76 1019.8
20260902022528 13 214 0.0 3.2 0.00 0.00 0.00 76 1019.8
20260902022027 13 0.0 0.0 0.00 0.00 0.00 76 1019.9
20260902021525 13 0.0 0.0 0.00 0.00 0.00 76 1019.8
20260902021023 14 0.0 0.0 0.00 0.00 0.00 76 1019.8
20260902020521 14 0.0 0.0 0.00 0.00 0.00 76 1019.9
20260902020019 14 0.0 0.0 0.00 0.00 0.00 76 1019.9
20260902015518 14 242 0.0 3.2 0.00 0.00 0.00 76 1019.8
20260902015124 14 257 1.6 4.8 0.00 0.00 0.00 76 1019.8
20260902015036 14 257 1.6 4.8 0.00 0.00 0.00 76 1019.8
20260902014534 14 256 1.6 4.8 0.00 0.00 0.00 76 1019.9
20260902014117 14 255 3.2 6.4 0.00 0.00 0.00 76 1019.9
20260902014032 14 255 3.2 6.4 0.00 0.00 0.00 76 1019.9
20260902013530 14 248 3.2 9.7 0.00 0.00 0.00 76 1019.8
20260902013028 14 260 1.6 4.8 0.00 0.00 0.00 75 1019.9
20260902012526 14 276 1.6 6.4 0.00 0.00 0.00 75 1019.7
20260902012115 14 288 1.6 6.4 0.00 0.00 0.00 75 1019.8
20260902012024 14 288 1.6 6.4 0.00 0.00 0.00 75 1019.8
20260902011522 14 259 0.0 4.8 0.00 0.00 0.00 75 1019.8
20260902011021 14 0.0 0.0 0.00 0.00 0.00 75 1019.7
20260902010519 14 264 0.0 3.2 0.00 0.00 0.00 75 1019.7
20260902010100 14 275 1.6 9.7 0.00 0.00 0.00 76 1019.7
20260902010017 14 275 1.6 9.7 0.00 0.00 0.00 76 1019.7
20260902005536 14 264 3.2 9.7 0.00 0.00 0.00 75 1019.7
20260902005033 14 270 1.6 4.8 0.00 0.00 0.00 75 1019.8
20260902004531 14 263 1.6 9.7 0.00 0.00 0.00 75 1019.7
20260902004030 14 256 3.2 4.8 0.00 0.00 0.00 75 1019.8
20260902003528 14 254 3.2 6.4 0.00 0.00 0.00 75 1019.7
20260902003025 15 253 0.0 3.2 0.00 0.00 0.00 75 1019.7
20260902002524 15 218 0.0 3.2 0.00 0.00 0.00 75 1019.7
20260902002022 15 233 0.0 3.2 0.00 0.00 0.00 75 1019.6
20260902001520 15 0.0 0.0 0.00 0.00 0.00 75 1019.6
20260902001018 15 237 0.0 3.2 0.00 0.00 0.00 75 1019.7
20260902000516 15 262 0.0 3.2 0.00 0.00 0.00 75 1019.7
20260902000034 15 264 0.0 3.2 0.00 0.00 0.00 75 1019.7
20260901235532 15 251 1.6 4.8 0.00 0.00 0.00 75 1019.7
20260901235031 15 245 1.6 4.8 0.00 0.00 0.00 75 1019.7
20260901234529 15 244 1.6 3.2 0.00 0.00 0.00 75 1019.6
20260901234027 15 0.0 0.0 0.00 0.00 0.00 75 1019.6
20260901233525 15 0.0 0.0 0.00 0.00 0.00 75 1019.6
20260901233023 15 249 1.6 4.8 0.00 0.00 0.00 75 1019.6
20260901232521 15 245 1.6 6.4 0.00 0.00 0.00 75 1019.6
20260901232019 15 241 0.0 3.2 0.00 0.00 0.00 75 1019.5
20260901231517 15 0.0 0.0 0.00 0.00 0.00 75 1019.6
20260901231048 15 256 0.0 3.2 0.00 0.00 0.00 75 1019.4
20260901231016 15 256 0.0 3.2 0.00 0.00 0.00 75 1019.4
20260901230534 15 299 1.6 9.7 0.00 0.00 0.00 75 1019.5
20260901230032 15 282 3.2 11.3 0.00 0.00 0.00 75 1019.5
20260901225530 15 287 4.8 14.5 0.00 0.00 0.00 75 1019.6
20260901225028 15 292 4.8 9.7 0.00 0.00 0.00 75 1019.5
20260901224526 15 283 4.8 11.3 0.00 0.00 0.00 75 1019.4
20260901224024 15 277 4.8 9.7 0.00 0.00 0.00 75 1019.5
20260901223522 15 284 3.2 9.7 0.00 0.00 0.00 75 1019.4
20260901223020 15 284 4.8 11.3 0.00 0.00 0.00 75 1019.5
20260901222519 15 284 4.8 14.5 0.00 0.00 0.00 75 1019.5
20260901222017 15 287 3.2 9.7 0.00 0.00 0.00 74 1019.5
20260901221535 15 285 3.2 9.7 0.00 0.00 0.00 74 1019.5
20260901221033 15 288 4.8 11.3 0.00 0.00 0.00 74 1019.5
20260901220531 15 288 3.2 9.7 0.00 0.00 0.00 74 1019.4
20260901220030 15 281 3.2 6.4 0.00 0.00 0.00 74 1019.4
20260901215527 15 279 3.2 6.4 0.00 0.00 0.00 74 1019.5
20260901215025 15 264 1.6 4.8 0.00 0.00 0.00 74 1019.5
20260901214523 15 261 1.6 6.4 0.00 0.00 0.00 74 1019.6
20260901214022 15 258 1.6 3.2 0.00 0.00 0.00 74 1019.5
20260901213520 15 258 1.6 6.4 0.00 0.00 0.00 74 1019.5
20260901213049 15 275 1.6 4.8 0.00 0.00 0.00 74 1019.4
20260901213018 15 275 1.6 4.8 0.00 0.00 0.00 74 1019.4
20260901212516 15 274 1.6 4.8 0.00 0.00 0.00 74 1019.5
20260901212034 15 260 1.6 4.8 0.00 0.00 0.00 73 1019.5
20260901211532 15 0.0 0.0 0.00 0.00 0.00 73 1019.5
20260901211030 16 259 0.0 1.6 0.00 0.00 0.00 73 1019.5
20260901210528 16 278 1.6 6.4 0.00 0.00 0.00 73 1019.5
20260901210027 16 0.0 0.0 0.00 0.00 0.00 72 1019.6
20260901205525 16 0.0 0.0 0.00 0.00 0.00 72 1019.5
20260901205023 16 259 0.0 1.6 0.00 0.00 0.00 72 1019.5
20260901204521 16 252 0.0 1.6 0.00 0.00 0.00 72 1019.5
20260901204019 16 0.0 0.0 0.00 0.00 0.00 72 1019.5
20260901203517 16 291 1.6 3.2 0.00 0.00 0.00 72 1019.4
20260901203016 16 284 3.2 4.8 0.00 0.00 0.00 71 1019.5
20260901202534 16 285 3.2 4.8 0.00 0.00 0.00 71 1019.5
20260901202032 16 286 1.6 4.8 0.00 0.00 0.00 71 1019.5
20260901201530 16 287 1.6 4.8 0.00 0.00 0.00 71 1019.4
20260901201028 16 287 1.6 4.8 0.00 0.00 0.00 70 1019.5
20260901200526 17 288 1.6 4.8 0.00 0.00 0.00 70 1019.4
20260901200024 17 293 3.2 3.2 0.00 0.00 0.00 70 1019.3
20260901195523 17 287 3.2 4.8 0.00 0.00 0.00 70 1019.5
20260901195020 17 288 3.2 4.8 0.00 0.00 0.00 70 1019.5
20260901194518 17 290 3.2 9.7 0.00 0.00 0.00 70 1019.5
20260901194048 17 293 3.2 4.8 0.00 0.00 0.00 70 1019.5
20260901194016 17 293 3.2 4.8 0.00 0.00 0.00 70 1019.5
20260901193535 17 261 1.6 6.4 0.00 0.00 0.00 69 1019.4
20260901193033 17 254 1.6 4.8 0.00 0.00 0.00 69 1019.5
20260901192531 17 258 1.6 3.2 0.00 0.00 0.00 69 1019.6
20260901192029 17 250 1.6 3.2 0.00 0.00 0.00 69 1019.5
20260901191527 17 251 1.6 3.2 0.00 0.00 0.00 69 1019.5
20260901191025 17 256 1.6 4.8 0.00 0.00 0.00 68 1019.4
20260901190523 17 256 1.6 4.8 0.00 0.00 0.00 68 1019.5
20260901190022 17 258 1.6 4.8 0.00 0.00 0.00 68 1019.5
20260901185520 17 286 0.0 3.2 0.00 0.00 0.00 68 1019.5
20260901185018 17 288 1.6 4.8 0.00 0.00 0.00 68 1019.4
20260901184516 17 290 3.2 4.8 0.00 0.00 0.00 68 1019.4
20260901184034 17 278 3.2 6.4 0.00 0.00 0.00 68 1019.3
20260901183532 18 290 3.2 6.4 0.00 0.00 0.00 67 1019.4
20260901183031 18 281 3.2 9.7 0.00 0.00 0.00 67 1019.3
20260901182529 18 286 4.8 9.7 0.00 0.00 0.00 67 1019.4
20260901182027 18 279 4.8 9.7 0.00 0.00 0.00 67 1019.2
20260901181525 18 291 4.8 9.7 0.00 0.00 0.00 67 1019.2
20260901181023 18 285 4.8 11.3 0.00 0.00 0.00 67 1019.2
20260901180522 18 280 4.8 14.5 0.00 0.00 0.00 67 1019.0
20260901180020 18 264 4.8 9.7 0.00 0.00 0.00 67 1019.0
20260901175518 18 270 4.8 12.9 0.00 0.00 0.00 67 1019.0
20260901175016 18 272 3.2 6.4 0.00 0.00 0.00 67 1019.0
20260901174534 18 266 3.2 6.4 0.00 0.00 0.00 67 1019.0
20260901174033 18 258 1.6 6.4 0.00 0.00 0.00 66 1018.8
20260901173530 18 277 3.2 6.4 0.00 0.00 0.00 66 1018.8
20260901173029 18 261 1.6 6.4 0.00 0.00 0.00 66 1018.8
20260901172527 18 270 1.6 4.8 0.00 0.00 0.00 66 1018.8
20260901172025 18 0.0 0.0 0.00 0.00 0.00 66 1018.8
20260901171523 18 294 0.0 4.8 0.00 0.00 0.00 66 1018.7
20260901171021 18 279 3.2 6.4 0.00 0.00 0.00 66 1018.6
20260901170519 18 287 3.2 9.7 0.00 0.00 0.00 66 1018.6
20260901170049 19 290 3.2 9.7 0.00 0.00 0.00 66 1018.6
20260901170017 19 290 3.2 9.7 0.00 0.00 0.00 66 1018.6
20260901165535 19 286 3.2 9.7 0.00 0.00 0.00 65 1018.6
20260901165034 19 291 4.8 11.3 0.00 0.00 0.00 65 1018.6
20260901164532 19 289 4.8 12.9 0.00 0.00 0.00 65 1018.6
20260901164030 19 285 6.4 12.9 0.00 0.00 0.00 65 1018.5
20260901163528 19 283 3.2 9.7 0.00 0.00 0.00 65 1018.4
20260901163026 19 287 4.8 12.9 0.00 0.00 0.00 65 1018.4
20260901162524 19 274 4.8 11.3 0.00 0.00 0.00 65 1018.5
20260901162022 19 279 4.8 12.9 0.00 0.00 0.00 65 1018.4
20260901161520 19 276 6.4 12.9 0.00 0.00 0.00 64 1018.5
20260901161019 19 281 8.0 16.1 0.00 0.00 0.00 64 1018.5
20260901160516 19 285 8.0 17.7 0.00 0.00 0.00 64 1018.5
20260901160034 19 288 9.7 16.1 0.00 0.00 0.00 64 1018.4
20260901155533 19 274 6.4 14.5 0.00 0.00 0.00 64 1018.4
20260901155031 19 287 11.3 24.1 0.00 0.00 0.00 64 1018.4
20260901154529 19 281 8.0 17.7 0.00 0.00 0.00 64 1018.3
20260901154027 19 289 9.7 20.9 0.00 0.00 0.00 64 1018.3
20260901153525 19 277 8.0 16.1 0.00 0.00 0.00 64 1018.4
20260901153023 19 288 8.0 16.1 0.00 0.00 0.00 64 1018.3
20260901152521 19 291 9.7 24.1 0.00 0.00 0.00 64 1018.3
20260901152020 19 290 9.7 30.6 0.00 0.00 0.00 63 1018.3
20260901151517 19 287 12.9 25.7 0.00 0.00 0.00 63 1018.2
20260901151049 19 287 11.3 22.5 0.00 0.00 0.00 63 1018.2
20260901151015 19 287 11.3 22.5 0.00 0.00 0.00 63 1018.2
20260901150534 19 289 9.7 24.1 0.00 0.00 0.00 64 1018.2
20260901150032 19 279 9.7 24.1 0.00 0.00 0.00 63 1018.2
20260901145530 19 279 11.3 25.7 0.00 0.00 0.00 63 1018.1
20260901145028 19 278 9.7 27.4 0.00 0.00 0.00 63 1018.2
20260901144526 19 286 6.4 17.7 0.00 0.00 0.00 63 1018.2
20260901144025 20 297 9.7 20.9 0.00 0.00 0.00 63 1018.1
20260901143523 20 270 9.7 20.9 0.00 0.00 0.00 63 1018.2
20260901143021 20 276 8.0 16.1 0.00 0.00 0.00 63 1018.2
20260901142519 20 279 8.0 16.1 0.00 0.00 0.00 63 1018.1
20260901142049 20 279 8.0 20.9 0.00 0.00 0.00 63 1018.1
20260901142017 20 279 8.0 20.9 0.00 0.00 0.00 63 1018.1
20260901141535 20 285 9.7 20.9 0.00 0.18 0.00 63 1018.0
20260901141033 20 262 9.7 22.5 0.00 0.18 0.00 63 1018.1
20260901140532 20 271 9.7 22.5 0.00 0.18 0.00 63 1018.0
20260901140029 20 276 8.0 17.7 0.00 0.18 0.00 63 1018.0
20260901135527 20 284 11.3 24.1 0.00 0.18 0.00 63 1018.0
20260901135025 20 280 12.9 27.4 0.00 0.20 0.00 63 1018.0
20260901134523 20 277 8.0 17.7 0.00 0.20 0.00 63 1018.1
20260901134022 20 262 8.0 20.9 0.00 0.20 0.00 63 1018.0
20260901133521 20 273 12.9 27.4 0.00 0.20 0.00 63 1018.1
20260901133019 19 270 11.3 25.7 0.00 0.20 0.00 63 1018.1
20260901132516 19 280 11.3 22.5 0.00 0.20 0.00 63 1018.1
20260901132035 19 291 12.9 27.4 0.00 0.20 0.00 63 1018.1
20260901131533 19 278 9.7 22.5 0.00 0.20 0.00 63 1018.1
20260901131031 20 277 9.7 17.7 0.00 0.20 0.00 63 1017.9
20260901130529 20 277 11.3 24.1 0.00 0.20 0.00 63 1017.9
20260901130027 20 273 11.3 22.5 0.00 0.20 0.00 63 1018.0
20260901125525 20 282 12.9 29.0 0.00 0.20 0.00 63 1018.0
20260901125024 19 265 9.7 33.8 0.00 0.20 0.00 64 1018.0
20260901124521 19 285 14.5 27.4 0.00 0.20 0.00 63 1017.9
20260901124020 19 280 8.0 17.7 0.00 0.20 0.00 63 1017.9
20260901123518 19 278 9.7 20.9 0.00 0.20 0.00 63 1017.9
20260901123052 19 289 12.9 29.0 0.00 0.20 0.00 62 1017.9
20260901123016 19 289 12.9 29.0 0.00 0.20 0.00 62 1017.9
20260901122534 20 278 9.7 24.1 0.00 0.20 0.00 61 1017.9
20260901122032 20 282 11.3 20.9 0.00 0.20 0.00 61 1017.8
20260901121531 20 290 9.7 20.9 0.00 0.20 0.00 61 1017.7
20260901121029 20 291 11.3 24.1 0.00 0.20 0.00 61 1017.7
20260901120527 20 280 9.7 25.7 0.00 0.20 0.00 61 1017.7
20260901120025 20 277 11.3 25.7 0.00 0.20 0.00 61 1017.7
20260901115523 20 284 11.3 27.4 0.00 0.20 0.00 61 1017.8
20260901115022 20 274 11.3 22.5 0.00 0.20 0.00 61 1017.8
20260901114519 20 295 11.3 33.8 0.00 0.20 0.00 61 1017.8
20260901114049 20 277 9.7 35.4 0.00 0.20 0.00 61 1017.7
20260901114017 20 277 9.7 35.4 0.00 0.20 0.00 61 1017.7
20260901113515 20 276 8.0 20.9 0.00 0.20 0.00 61 1017.7
20260901113034 20 278 9.7 27.4 0.00 0.20 0.00 60 1017.6
20260901112532 20 279 17.7 35.4 0.00 0.20 0.00 59 1017.7
20260901112030 20 274 9.7 20.9 0.00 0.20 0.00 61 1017.7
20260901111528 20 285 9.7 22.5 0.00 0.20 0.00 61 1017.7
20260901111027 20 273 11.3 22.5 0.00 0.20 0.00 60 1017.7
20260901110525 20 287 12.9 24.1 0.00 0.20 0.00 59 1017.6
20260901110023 20 292 9.7 24.1 0.00 0.20 0.00 60 1017.6
20260901105521 20 281 11.3 22.5 0.00 0.20 0.00 60 1017.6
20260901105019 20 276 11.3 29.0 0.00 0.20 0.00 59 1017.5
20260901104517 20 265 11.3 22.5 0.00 0.20 0.00 60 1017.5
20260901104036 20 281 8.0 24.1 0.00 0.20 0.00 60 1017.5
20260901103534 20 277 11.3 22.5 0.00 0.20 0.00 60 1017.5
20260901103032 20 276 14.5 30.6 0.00 0.20 0.00 59 1017.5
20260901102530 21 281 14.5 33.8 0.00 0.20 0.00 58 1017.4
20260901102028 21 279 12.9 29.0 0.00 0.20 0.00 58 1017.3
20260901101526 21 280 14.5 30.6 0.00 0.20 0.00 58 1017.3